Wind_Speed
7 6 6 5 5 5 4 4 3 2 3 4 4 3 2 1 2 1 1 1 0 0 1 1 2 3 3 3 4 5 4 5 6 7 8 9 10 10 11 11 11 12 12
7 7 6 5 4 4 4 3 3 3 3 3 3 2 2 1 1 0 0 0 1 2 2 2 3 3 3 4 5 5 6 7 7 8 9 10 11 12 13 13 13 13 14
8 7 6 6 5 5 4 3 4 4 4 3 2 1 1 1 1 1 1 2 3 3 4 3 4 4 5 5 6 6 6 7 8 9 10 10 11 11 11 13 14 15 14
8 8 7 6 6 6 5 4 5 5 4 4 3 2 1 1 1 1 2 3 4 5 5 5 5 6 6 7 7 7 7 8 9 10 10 10 10 11 11 12 14 15 16
8 8 7 7 6 6 6 6 6 5 4 4 3 3 2 1 0 2 3 4 4 4 5 6 7 7 7 8 7 7 8 9 10 11 11 11 11 12 13 13 14 15 15
8 8 8 6 6 6 6 6 5 4 3 3 3 2 2 2 2 3 3 4 4 5 6 6 7 8 8 9 9 9 9 10 11 11 12 13 13 14 14 14 15 16 16
8 8 8 7 5 5 6 6 5 4 4 4 4 3 3 3 4 4 5 5 6 7 7 7 7 8 8 9 9 10 11 12 12 12 12 13 13 13 14 15 16 16 17
8 8 8 7 6 6 6 6 5 5 4 4 4 3 3 4 4 5 5 6 7 7 8 8 8 8 8 9 10 10 11 11 11 12 12 12 12 13 14 15 16 16 16
8 8 8 8 6 6 5 5 5 4 4 4 3 4 4 4 4 5 5 7 7 8 8 9 9 9 9 9 10 11 11 12 12 12 13 14 14 14 15 16 16 16 16
7 7 7 7 6 5 5 4 4 4 4 5 4 4 4 4 4 5 6 7 8 8 8 9 9 9 9 10 10 11 12 13 13 13 14 15 15 16 16 15 16 16 17
7 7 7 6 5 5 4 4 4 4 4 4 5 5 5 5 5 6 8 9 9 9 9 9 10 10 10 11 11 12 12 13 13 14 14 15 16 16 16 16 16 17 18
7 7 7 6 5 5 4 4 4 5 4 4 5 5 6 7 7 7 8 9 10 10 10 10 11 12 12 12 12 12 13 14 14 15 15 16 16 16 16 16 17 18 18
7 7 7 6 6 6 5 5 5 5 5 5 6 6 7 7 8 8 9 10 10 11 11 12 12 12 13 13 13 14 14 14 15 15 16 16 17 17 17 16 17 18 18
8 7 7 7 6 6 6 6 6 6 6 6 7 7 7 8 8 9 9 10 11 12 12 13 13 13 14 14 14 15 15 15 16 16 17 17 18 18 17 17 18 18 18
9 8 8 7 7 7 7 7 7 8 8 7 8 8 8 8 9 10 11 12 12 13 13 13 13 14 15 15 16 16 16 17 17 17 18 18 18 18 19 18 18 18 18
9 9 9 8 7 7 8 8 8 8 8 8 9 9 10 10 11 12 13 13 13 14 14 15 14 15 16 16 16 17 17 18 18 18 19 19 19 19 19 19 19 19 19
9 10 9 8 8 8 9 9 8 9 9 10 10 11 12 12 12 13 14 14 15 15 16 16 16 16 17 17 17 18 18 18 18 19 19 19 19 19 20 20 20 20 20
10 11 10 10 9 9 9 10 10 10 10 11 11 12 13 13 14 14 15 16 16 16 16 17 17 17 18 17 17 18 18 18 18 18 19 19 20 20 20 20 20 19 20
11 11 12 11 11 10 10 11 11 11 12 12 12 13 13 14 15 15 16 16 17 17 18 18 18 18 18 18 18 18 19 19 19 19 20 20 20 20 20 20 20 20 20
13 12 12 12 12 12 12 12 12 12 13 13 13 13 14 15 16 16 17 17 18 18 19 19 18 18 19 19 19 19 19 19 20 20 20 21 21 21 21 21 21 20 20
14 14 13 13 13 14 14 13 13 14 14 14 14 15 16 16 17 18 18 19 19 19 20 19 19 19 20 20 20 20 20 20 21 21 22 22 22 22 22 22 22 22 21
15 15 15 15 15 15 16 16 16 16 16 16 16 17 17 18 19 19 20 21 20 20 21 21 20 20 21 21 21 21 22 22 22 22 23 23 23 24 23 23 24 24 23
17 17 17 17 17 18 18 18 18 18 18 18 18 18 19 20 20 21 21 22 21 21 22 22 21 21 21 22 22 22 23 24 23 24 24 24 24 25 25 25 25 25 25
19 19 19 19 19 19 20 21 21 20 20 21 22 22 21 21 22 23 24 23 23 23 23 23 23 22 22 22 22 23 24 24 25 25 25 26 26 26 27 26 26 26 26
21 22 22 22 22 22 22 23 23 23 23 23 23 24 24 23 24 25 25 24 24 24 24 24 24 23 23 23 23 24 25 26 26 26 27 27 27 27 27 27 27 27 27
24 25 25 24 24 24 24 24 25 25 25 25 25 25 26 26 26 27 26 26 26 26 26 25 25 25 26 26 26 26 27 27 28 28 29 29 29 28 28 28 28 28 28
Wind_Direction
79 74 83 85 87 90 92 93 109 125 128 135 145 159 158 123 124 110 72 110 166 253 299 290 277 279 276 271 276 284 270 268 266 255 253 255 258 259 259 259 259 259 258
71 76 80 77 77 75 82 88 100 116 115 124 129 150 186 183 189 134 4 187 265 266 274 284 280 284 286 286 283 282 278 275 275 269 265 266 266 263 262 262 262 262 262
69 71 75 69 72 71 66 65 75 99 105 112 110 116 185 182 203 243 296 296 290 280 279 282 283 284 289 290 289 284 285 281 278 274 273 274 269 266 268 266 264 265 266
69 66 65 61 67 73 69 66 76 86 93 92 92 85 108 162 235 283 301 295 291 285 286 286 290 287 288 289 291 288 284 282 279 276 278 276 270 269 273 271 268 265 265
65 60 62 63 70 71 74 72 76 80 81 77 73 63 74 89 358 310 311 311 310 305 298 292 296 295 292 292 292 290 287 285 282 279 278 277 275 273 275 274 270 267 266
60 58 56 61 65 69 72 69 62 63 63 59 55 52 42 30 5 347 335 334 333 327 322 315 308 301 295 294 292 287 287 288 285 283 280 279 278 275 275 274 271 269 268
56 54 52 55 58 63 62 57 56 49 42 39 33 23 7 357 346 342 339 340 335 330 326 315 305 300 297 293 294 289 287 288 288 285 285 284 280 280 278 274 273 270 269
53 50 49 51 56 59 55 50 45 38 33 26 15 6 351 341 337 335 335 337 334 331 327 319 306 301 298 298 293 294 294 292 293 290 290 290 286 282 280 278 273 270 270
51 49 45 43 43 44 42 39 28 22 19 14 359 343 332 323 329 335 333 333 331 327 325 324 317 307 303 301 301 301 299 299 296 292 290 290 288 286 283 280 276 274 273
47 43 39 37 35 30 27 24 16 11 6 357 345 338 336 328 325 330 329 328 329 328 325 323 324 319 313 306 305 304 301 298 297 296 294 292 290 289 289 285 283 280 277
37 34 32 31 32 28 18 10 3 354 354 346 338 334 328 327 324 324 325 325 327 328 327 326 324 319 314 308 302 301 301 302 303 301 299 295 293 293 291 286 283 283 280
25 19 17 17 17 16 7 354 345 344 341 336 335 327 323 321 321 321 319 320 320 324 327 325 321 317 313 313 308 302 300 302 301 302 300 298 295 296 291 285 285 284 280
13 10 7 4 0 358 354 344 335 329 326 327 329 326 324 322 324 323 320 319 318 318 321 322 320 317 314 311 309 305 302 304 303 304 304 303 301 299 294 288 288 284 281
355 354 354 350 345 342 338 333 331 327 318 317 318 320 322 321 318 321 321 319 318 316 318 319 320 318 315 312 307 304 303 304 305 304 305 304 305 304 299 292 290 288 286
346 344 340 337 336 333 326 322 322 320 316 312 313 315 315 317 316 317 318 316 316 314 315 318 319 318 315 314 310 306 303 302 305 307 306 305 303 303 300 295 292 290 289
343 338 336 336 334 332 328 320 316 315 312 310 311 311 312 313 315 315 317 315 314 314 312 313 314 315 313 311 311 308 306 303 303 305 305 304 304 302 302 298 292 288 288
339 337 334 334 333 330 328 324 317 312 308 306 308 309 310 312 313 312 311 314 315 312 310 310 309 310 311 309 309 307 308 306 304 305 305 303 303 302 301 299 295 289 287
326 326 323 323 325 326 323 320 315 310 307 304 305 307 306 309 310 310 310 311 312 309 308 308 307 308 310 310 309 309 308 307 305 305 305 304 304 303 301 298 297 295 289
320 318 316 317 318 319 319 316 312 308 305 302 302 304 305 309 312 310 308 308 309 309 308 307 306 307 308 310 309 309 308 307 304 303 303 304 305 304 301 298 296 295 293
317 314 313 315 315 314 312 312 309 306 304 303 303 304 304 306 309 308 306 305 307 307 307 306 306 307 308 309 309 310 310 310 308 306 304 304 305 304 301 297 295 294 293
313 312 309 309 308 307 307 308 309 306 306 304 303 302 302 303 305 305 303 302 303 305 305 304 305 307 308 309 307 308 309 308 308 306 304 303 302 302 300 297 295 294 293
306 307 307 305 302 301 302 303 304 304 303 301 301 301 300 302 302 302 300 301 302 302 303 301 302 305 307 309 307 306 307 306 305 304 303 301 301 301 299 297 295 293 291
300 302 304 306 304 301 299 300 298 299 300 299 298 299 300 300 299 299 300 301 302 302 302 301 301 303 305 308 307 306 306 306 305 303 302 301 301 300 299 297 295 293 291
296 297 298 301 302 301 299 298 296 297 299 299 299 299 299 297 297 297 298 299 302 301 301 301 300 301 303 305 305 305 304 303 302 302 302 301 301 300 299 297 296 294 292
292 293 294 295 296 298 298 297 295 295 295 297 298 299 297 295 295 296 296 296 299 300 299 300 300 299 300 302 304 304 304 302 301 301 301 301 300 300 299 298 296 295 294
289 290 292 292 293 295 295 295 294 295 295 294 295 296 295 295 295 296 295 294 295 296 298 298 298 298 299 299 300 302 302 302 301 301 300 300 299 299 298 298 297 296 296
Height
5888 5888 5887 5887 5887 5887 5887 5887 5887 5887 5887 5887 5887 5887 5887 5886 5886 5886 5886 5886 5885 5885 5884 5884 5884 5883 5883 5882 5882 5881 5880 5880 5880 5880 5879 5879 5879 5879 5878 5878 5878 5878 5878
5889 5889 5889 5888 5888 5887 5887 5887 5887 5888 5888 5887 5887 5887 5887 5886 5886 5886 5886 5886 5885 5885 5884 5883 5883 5882 5882 5881 5881 5880 5879 5879 5879 5878 5878 5877 5877 5876 5876 5876 5876 5875 5875
5891 5890 5890 5889 5889 5888 5887 5887 5887 5887 5888 5887 5887 5887 5887 5887 5886 5886 5886 5885 5885 5884 5883 5883 5882 5881 5881 5880 5880 5879 5878 5877 5877 5876 5876 5875 5874 5874 5873 5873 5872 5872 5872
5892 5892 5891 5890 5889 5888 5888 5888 5888 5888 5888 5888 5887 5887 5887 5887 5886 5886 5885 5884 5884 5883 5882 5882 5881 5880 5879 5879 5878 5877 5876 5876 5875 5874 5873 5872 5872 5871 5870 5870 5869 5869 5869
5893 5893 5892 5891 5890 5889 5889 5889 5889 5889 5889 5888 5888 5887 5887 5887 5886 5885 5884 5883 5882 5882 5881 5880 5879 5878 5878 5877 5876 5875 5875 5874 5873 5872 5871 5870 5869 5868 5868 5867 5866 5866 5865
5894 5894 5893 5892 5891 5891 5890 5890 5890 5889 5889 5888 5888 5887 5887 5887 5886 5885 5884 5883 5881 5880 5879 5878 5877 5877 5876 5875 5874 5873 5873 5871 5870 5869 5868 5867 5866 5865 5864 5863 5863 5862 5861
5895 5895 5894 5893 5892 5892 5891 5891 5890 5890 5889 5888 5888 5887 5887 5886 5885 5884 5883 5882 5881 5880 5878 5877 5876 5875 5874 5873 5872 5871 5870 5869 5868 5866 5865 5864 5863 5862 5861 5860 5859 5858 5857
5896 5895 5894 5894 5893 5892 5892 5891 5890 5890 5889 5888 5888 5887 5886 5886 5885 5884 5882 5881 5880 5879 5877 5875 5874 5873 5872 5871 5869 5868 5867 5866 5865 5863 5862 5861 5859 5858 5857 5856 5855 5854 5853
5897 5896 5895 5894 5893 5892 5892 5891 5890 5890 5889 5888 5887 5887 5886 5885 5884 5883 5882 5881 5879 5877 5876 5874 5872 5871 5869 5868 5867 5866 5864 5863 5862 5860 5859 5857 5856 5854 5853 5852 5850 5850 5849
5897 5896 5895 5894 5893 5892 5891 5891 5890 5889 5888 5887 5887 5886 5885 5884 5884 5882 5881 5880 5878 5876 5874 5873 5871 5869 5868 5866 5865 5863 5862 5860 5859 5857 5855 5854 5852 5850 5849 5847 5846 5845 5844
5898 5897 5895 5894 5893 5892 5891 5890 5890 5889 5888 5887 5886 5885 5884 5883 5882 5881 5880 5878 5876 5875 5873 5871 5869 5868 5866 5864 5862 5861 5859 5857 5855 5854 5852 5850 5848 5847 5845 5843 5842 5840 5839
5898 5897 5895 5894 5893 5892 5891 5890 5889 5887 5887 5886 5885 5884 5883 5881 5880 5879 5878 5876 5875 5873 5871 5869 5868 5866 5863 5861 5860 5858 5856 5854 5852 5850 5848 5846 5844 5842 5840 5838 5837 5835 5834
5898 5896 5894 5893 5892 5891 5889 5888 5887 5886 5885 5884 5883 5882 5881 5880 5878 5877 5876 5874 5872 5871 5869 5867 5865 5863 5861 5859 5857 5855 5853 5851 5849 5847 5844 5842 5840 5838 5835 5834 5832 5830 5829
5897 5895 5893 5892 5891 5889 5888 5886 5885 5884 5883 5882 5881 5880 5879 5878 5876 5875 5874 5872 5870 5868 5866 5864 5862 5860 5858 5856 5854 5852 5850 5848 5846 5843 5841 5838 5835 5833 5831 5829 5827 5825 5823
5896 5894 5892 5890 5889 5887 5886 5884 5883 5882 5881 5880 5879 5878 5877 5876 5874 5873 5871 5870 5868 5866 5864 5862 5860 5857 5855 5853 5851 5849 5846 5844 5842 5840 5837 5834 5832 5829 5827 5824 5822 5820 5818
5895 5893 5891 5889 5887 5885 5883 5882 5881 5880 5879 5878 5877 5876 5875 5873 5872 5870 5868 5867 5865 5863 5861 5859 5857 5854 5852 5849 5847 5845 5843 5840 5838 5835 5833 5830 5827 5825 5822 5819 5817 5815 5813
5893 5891 5889 5887 5885 5883 5881 5879 5878 5877 5876 5875 5874 5873 5872 5871 5869 5867 5865 5863 5862 5860 5858 5855 5853 5851 5849 5846 5843 5841 5838 5836 5834 5831 5828 5825 5823 5820 5817 5815 5812 5810 5808
5891 5889 5887 5885 5883 5881 5879 5877 5875 5874 5873 5872 5871 5870 5868 5867 5866 5864 5862 5860 5858 5856 5854 5852 5849 5847 5845 5842 5839 5837 5834 5831 5829 5826 5823 5821 5818 5815 5812 5810 5807 5805 5802
5888 5886 5884 5882 5880 5878 5876 5874 5872 5871 5869 5868 5867 5866 5865 5863 5862 5860 5859 5857 5855 5852 5850 5848 5845 5843 5840 5838 5835 5833 5830 5827 5824 5821 5819 5816 5813 5810 5808 5805 5802 5800 5797
5886 5884 5882 5880 5878 5875 5873 5871 5869 5868 5866 5865 5864 5862 5861 5860 5858 5856 5854 5852 5850 5848 5845 5843 5841 5838 5836 5833 5831 5828 5825 5822 5820 5817 5814 5811 5808 5805 5803 5800 5797 5795 5792
5883 5881 5879 5876 5874 5872 5870 5868 5866 5864 5863 5862 5860 5859 5857 5856 5854 5852 5850 5848 5845 5843 5841 5838 5836 5834 5831 5828 5826 5823 5821 5818 5815 5812 5809 5806 5803 5800 5797 5795 5792 5789 5787
5879 5877 5875 5872 5870 5869 5867 5865 5863 5861 5859 5857 5856 5854 5853 5851 5849 5847 5845 5842 5840 5838 5836 5833 5831 5829 5826 5824 5821 5818 5815 5812 5810 5807 5803 5801 5798 5795 5792 5789 5786 5783 5781
5875 5873 5871 5869 5866 5864 5862 5860 5858 5856 5855 5853 5851 5849 5848 5846 5844 5842 5839 5837 5835 5832 5830 5828 5826 5823 5821 5819 5816 5813 5810 5807 5804 5801 5798 5795 5792 5789 5785 5782 5779 5777 5774
5870 5868 5866 5864 5862 5860 5857 5855 5853 5851 5849 5848 5846 5844 5842 5840 5837 5835 5833 5831 5829 5827 5824 5822 5820 5817 5815 5813 5810 5807 5804 5801 5798 5795 5792 5789 5785 5782 5779 5776 5773 5770 5767
5865 5863 5861 5858 5856 5854 5852 5850 5847 5846 5844 5842 5840 5838 5835 5833 5831 5829 5827 5825 5823 5820 5818 5815 5813 5811 5808 5806 5803 5801 5798 5795 5791 5788 5785 5782 5779 5775 5772 5769 5765 5762 5759
5858 5856 5854 5852 5850 5848 5846 5844 5841 5839 5837 5835 5833 5831 5829 5827 5824 5822 5820 5818 5816 5813 5810 5808 5806 5804 5801 5799 5796 5793 5791 5788 5784 5781 5778 5775 5771 5768 5765 5762 5758 5755 5752